Weather History for Asheville, NC

Change the Weather History Date:

Tuesday, March 12, 2013

  Actual Average Record
Temperature  
Mean Temperature 46 °F 46 °F  
Max Temperature 53 °F 57 °F 83 °F (1911)
Min Temperature 38 °F 35 °F 14 °F (1998)
Degree Days  
Heating Degree Days 19 19  
Month to date heating degree days 303 243  
Since 1 July heating degree days 3244 3460  
Cooling Degree Days 0 0  
Month to date cooling degree days 0 0  
Year to date cooling degree days 0 0  
Moisture  
Dew Point 40 °F    
Average Humidity 71    
Maximum Humidity 100    
Minimum Humidity 42    
Precipitation  
Precipitation 0.17 in 0.12 in 4.17 in (1968)
Month to date precipitation 1.70 1.48  
Year to date precipitation 13.84 8.91  
Snow  
Snow 0.00 in 0.00 in 4.00 in (1993)
Month to date snowfall T 0.8  
Since 1 July snowfall 0.2 8.1  
Snow Depth 0.00 in    
Sea Level Pressure  
Sea Level Pressure 29.87 in    
Wind  
Wind Speed 15 mph (NNW)    
Max Wind Speed 25 mph    
Max Gust Speed 31 mph    
Visibility 8 miles    
Events Rain    
T = Trace of Precipitation, MM = Missing Value Source: NWS Daily Summary

Daily Weather History Graph

Daily Weather History Graph

Search for Another Location

Airport:

Trip Planner

Search our weather history database for the weather conditions in past years. The results will help you decide how hot, cold, wet, or windy it might be!

Date:

Astronomy

Mar. 12, 2013 Rise Set
Actual Time 7:44 AM EDT 7:35 PM EDT
Civil Twilight 7:19 AM EDT 8:00 PM EDT
Nautical Twilight 6:49 AM EDT 8:30 PM EDT
Astronomical Twilight 6:20 AM EDT 9:00 PM EDT
Moon 7:53 AM EDT (3/12) 8:44 PM EDT (3/12)
Length of Visible Light 12h 41m
Length of Day
11h 50m
New Moon, 1% of the Moon is Illuminated
Mar 12
New Moon
Mar 19
First Quarter
Mar 27
Full
Apr 3
Last Quarter
Apr 10
New

Hourly Weather History & Observations

Time (EDT) Temp. Windchill Dew Point Humidity Pressure Visibility Wind Dir Wind Speed Gust Speed Precip Events Conditions
12:20 AM 51.8 °F - 51.8 °F 100% 29.83 in 5.0 mi Calm Calm - 0.10 in Rain Rain
12:44 AM 51.8 °F - 51.8 °F 100% 29.83 in 7.0 mi South 3.5 mph - 0.15 in Rain Light Rain
12:51 AM 51.8 °F - 51.8 °F 100% 29.82 in 6.0 mi Calm Calm - 0.15 in Rain Light Rain
12:54 AM 52.0 °F - 51.1 °F 97% 29.79 in 6.0 mi Calm Calm - 0.15 in Rain Light Rain
1:14 AM 51.8 °F - 51.8 °F 100% 29.81 in 7.0 mi Calm Calm - N/A Rain Light Rain
1:33 AM 51.8 °F - 51.8 °F 100% 29.80 in 6.0 mi Calm Calm - 0.02 in Rain Light Rain
1:54 AM 52.0 °F - 51.1 °F 97% 29.77 in 8.0 mi Calm Calm - 0.02 in Rain Light Rain
2:10 AM 53.6 °F - 51.8 °F 94% 29.79 in 8.0 mi Calm Calm - 0.02 in Rain Light Rain
2:23 AM 51.8 °F - 51.8 °F 100% 29.78 in 5.0 mi Calm Calm - 0.03 in Rain Light Rain
2:54 AM 52.0 °F - 51.1 °F 97% 29.76 in 5.0 mi South 3.5 mph - 0.06 in Rain Light Rain
3:28 AM 51.8 °F - 51.8 °F 100% 29.78 in 5.0 mi WNW 4.6 mph - 0.03 in Rain Light Rain
3:54 AM 48.0 °F - 46.0 °F 93% 29.76 in 4.0 mi NNW 17.3 mph - 0.05 in Rain Light Rain
4:11 AM 46.4 °F 39.5 °F 44.6 °F 93% 29.79 in 5.0 mi NNW 17.3 mph - 0.02 in Rain Rain
4:21 AM 46.4 °F 40.1 °F 44.6 °F 93% 29.79 in 6.0 mi NNW 15.0 mph - 0.04 in Rain Rain
4:54 AM 44.1 °F 35.2 °F 42.1 °F 93% 29.78 in 10.0 mi NNW 23.0 mph 28.8 mph 0.04 in   Overcast
5:22 AM 42.8 °F 34.0 °F 41.0 °F 93% 29.80 in 7.0 mi NNW 20.7 mph 26.5 mph N/A   Overcast
5:54 AM 42.1 °F 32.8 °F 39.9 °F 92% 29.79 in 7.0 mi NNW 21.9 mph 28.8 mph N/A   Overcast
6:02 AM 42.8 °F 34.3 °F 39.2 °F 87% 29.81 in 6.0 mi NNW 19.6 mph 29.9 mph N/A   Overcast
6:54 AM 41.0 °F 32.2 °F 39.0 °F 93% 29.81 in 10.0 mi North 18.4 mph 31.1 mph N/A   Overcast
7:54 AM 39.0 °F 29.3 °F 37.0 °F 93% 29.84 in 10.0 mi NNW 19.6 mph 29.9 mph N/A   Overcast
8:05 AM 39.2 °F 30.2 °F 37.4 °F 93% 29.86 in 2.0 mi North 17.3 mph 27.6 mph N/A   Overcast
8:54 AM 37.9 °F 28.2 °F 36.0 °F 93% 29.89 in 2.0 mi NNW 18.4 mph 27.6 mph N/A   Overcast
9:01 AM 39.2 °F 30.5 °F 35.6 °F 87% 29.90 in 10.0 mi North 16.1 mph 25.3 mph N/A   Overcast
9:36 AM 39.2 °F 29.3 °F 35.6 °F 87% 29.91 in 10.0 mi North 20.7 mph 29.9 mph N/A   Overcast
9:54 AM 39.0 °F 31.4 °F 35.1 °F 86% 29.90 in 10.0 mi NNW 12.7 mph - N/A   Overcast
10:40 AM 41.0 °F 31.9 °F 35.6 °F 81% 29.92 in 10.0 mi North 19.6 mph 28.8 mph N/A   Overcast
10:54 AM 41.0 °F 33.5 °F 34.0 °F 76% 29.91 in 10.0 mi North 13.8 mph 26.5 mph N/A   Overcast
11:54 AM 43.0 °F 36.4 °F 35.1 °F 74% 29.91 in 10.0 mi NNW 12.7 mph 19.6 mph N/A   Overcast
12:54 PM 45.0 °F 37.4 °F 36.0 °F 71% 29.92 in 10.0 mi NNW 18.4 mph 29.9 mph N/A   Mostly Cloudy
1:07 PM 44.6 °F 37.8 °F 33.8 °F 66% 29.94 in 10.0 mi North 15.0 mph 26.5 mph N/A   Scattered Clouds
1:54 PM 46.9 °F - 35.1 °F 63% 29.91 in 10.0 mi NNW 20.7 mph 27.6 mph N/A   Clear
2:54 PM 48.0 °F - 35.1 °F 61% 29.92 in 10.0 mi North 16.1 mph 26.5 mph N/A   Clear
3:54 PM 48.9 °F - 33.1 °F 54% 29.91 in 10.0 mi NNW 17.3 mph 21.9 mph N/A   Clear
4:54 PM 50.0 °F - 32.0 °F 50% 29.92 in 10.0 mi NNW 15.0 mph 20.7 mph N/A   Clear
5:54 PM 50.0 °F - 28.9 °F 44% 29.93 in 10.0 mi North 16.1 mph - N/A   Clear
6:54 PM 48.0 °F - 28.9 °F 48% 29.95 in 10.0 mi North 16.1 mph 25.3 mph N/A   Clear
7:54 PM 45.0 °F 37.6 °F 28.9 °F 53% 29.99 in 10.0 mi North 17.3 mph 25.3 mph N/A   Clear
8:54 PM 43.0 °F 38.2 °F 30.0 °F 60% 30.01 in 10.0 mi North 8.1 mph - N/A   Clear
9:54 PM 41.0 °F 36.4 °F 30.0 °F 65% 30.03 in 10.0 mi NNW 6.9 mph - N/A   Clear
10:54 PM 41.0 °F 33.5 °F 30.0 °F 65% 30.02 in 10.0 mi NNW 13.8 mph 18.4 mph N/A   Clear
11:54 PM 39.9 °F 31.4 °F 30.0 °F 68% 30.03 in 10.0 mi NNW 16.1 mph - N/A   Clear